When you browse on this site, cookies collect data to enhance your experience and personalize the content and advertising you see.
Visit our Privacy Policy to learn more. By continuing to use the site, you agree to this use of cookies and data.
  • Em Portugal
  • Lista de países
  • Para 7 dias
  • Temperatura da água
  • Mapas de satélite
  • Mapa do tempo
  • Widgets de tempo
  • user-avatar
    Iniciar Sessão

    Previsão horária em Wiazowa

    Hoje, 20 Junho, Quinta-feira

    Tempo Temperatura Precipitação Vento Pressão Humidade
    00:00 +20°C° 0 mm 2 m/s 750 mmHg 82%
    01:00 +21°C° 0 mm 1 m/s 750 mmHg 83%
    02:00 +21°C° 0 mm 1 m/s 750 mmHg 83%
    03:00 +21°C° 0 mm 1 m/s 750 mmHg 82%
    04:00 +21°C° 0 mm 1 m/s 750 mmHg 81%
    05:00 +21°C° 0 mm 2 m/s 750 mmHg 79%
    06:00 +24°C° 0 mm 2 m/s 750 mmHg 77%
    07:00 +25°C° 0 mm 2 m/s 750 mmHg 74%
    08:00 +26°C° 0 mm 2 m/s 750 mmHg 69%
    09:00 +28°C° 0 mm 2 m/s 750 mmHg 63%
    10:00 +29°C° 0 mm 2 m/s 750 mmHg 57%
    11:00 +30°C° 0 mm 2 m/s 750 mmHg 54%
    12:00 +31°C° 0 mm 3 m/s 750 mmHg 50%
    13:00 +31°C° 0 mm 3 m/s 750 mmHg 46%
    14:00 +31°C° 0 mm 3 m/s 750 mmHg 48%
    15:00 +31°C° 0 mm 3 m/s 749 mmHg 50%
    16:00 +31°C° 0 mm 3 m/s 749 mmHg 51%
    17:00 +30°C° 0 mm 2 m/s 749 mmHg 56%
    18:00 +29°C° 0 mm 2 m/s 750 mmHg 60%
    19:00 +28°C° 0 mm 1 m/s 750 mmHg 64%
    20:00 +26°C° 0.7 mm 2 m/s 750 mmHg 72%
    21:00 +23°C° 0.7 mm 2 m/s 751 mmHg 81%
    22:00 +20°C° 0.7 mm 3 m/s 751 mmHg 89%
    23:00 +20°C° 0.4 mm 3 m/s 751 mmHg 90%

    Amanhã, 21 Junho, Sexta-feira

    Tempo Temperatura Precipitação Vento Pressão Humidade
    00:00 +19°C° 0.4 mm 3 m/s 751 mmHg 90%
    01:00 +19°C° 0.4 mm 4 m/s 752 mmHg 91%
    02:00 +19°C° 0 mm 3 m/s 752 mmHg 91%
    03:00 +19°C° 0 mm 2 m/s 752 mmHg 91%
    04:00 +19°C° 0 mm 2 m/s 752 mmHg 91%
    05:00 +20°C° 0 mm 2 m/s 752 mmHg 88%
    06:00 +21°C° 0 mm 2 m/s 753 mmHg 84%
    07:00 +23°C° 0 mm 2 m/s 753 mmHg 81%
    08:00 +22°C° 0.4 mm 3 m/s 753 mmHg 81%
    09:00 +22°C° 0.4 mm 3 m/s 754 mmHg 81%
    10:00 +22°C° 0.4 mm 3 m/s 754 mmHg 81%
    11:00 +24°C° 0.1 mm 3 m/s 754 mmHg 77%
    12:00 +24°C° 0.1 mm 2 m/s 754 mmHg 74%
    13:00 +24°C° 0.1 mm 2 m/s 754 mmHg 70%
    14:00 +25°C° 0.1 mm 2 m/s 754 mmHg 68%
    15:00 +26°C° 0.1 mm 3 m/s 754 mmHg 66%
    16:00 +26°C° 0.1 mm 3 m/s 754 mmHg 65%
    17:00 +25°C° 0.4 mm 3 m/s 754 mmHg 71%
    18:00 +24°C° 0.4 mm 3 m/s 754 mmHg 77%
    19:00 +22°C° 0.4 mm 3 m/s 754 mmHg 83%
    20:00 +21°C° 0 mm 3 m/s 755 mmHg 86%
    21:00 +20°C° 0 mm 3 m/s 756 mmHg 90%
    22:00 +18°C° 0 mm 3 m/s 756 mmHg 93%
    23:00 +18°C° 0 mm 3 m/s 756 mmHg 93%

    Depois de amanhã, 22 Junho, Sábado

    Tempo Temperatura Precipitação Vento Pressão Humidade
    00:00 +17°C° 0 mm 3 m/s 757 mmHg 94%
    01:00 +17°C° 0 mm 3 m/s 757 mmHg 94%
    02:00 +16°C° 0 mm 3 m/s 757 mmHg 94%
    03:00 +14°C° 0 mm 3 m/s 757 mmHg 94%
    04:00 +14°C° 0 mm 3 m/s 758 mmHg 94%
    05:00 +16°C° 0 mm 3 m/s 758 mmHg 90%
    06:00 +17°C° 0 mm 3 m/s 758 mmHg 86%
    07:00 +18°C° 0 mm 4 m/s 759 mmHg 82%
    08:00 +19°C° 0 mm 4 m/s 759 mmHg 74%
    09:00 +20°C° 0 mm 4 m/s 759 mmHg 67%
    10:00 +21°C° 0 mm 4 m/s 759 mmHg 60%
    11:00 +22°C° 0 mm 4 m/s 759 mmHg 59%
    12:00 +23°C° 0 mm 4 m/s 759 mmHg 58%
    13:00 +23°C° 0 mm 5 m/s 758 mmHg 57%
    14:00 +23°C° 0 mm 5 m/s 758 mmHg 58%
    15:00 +23°C° 0 mm 5 m/s 758 mmHg 59%
    16:00 +23°C° 0 mm 5 m/s 758 mmHg 61%
    17:00 +22°C° 0 mm 5 m/s 758 mmHg 66%
    18:00 +21°C° 0 mm 5 m/s 758 mmHg 71%
    19:00 +20°C° 0 mm 5 m/s 758 mmHg 76%
    20:00 +17°C° 0 mm 5 m/s 758 mmHg 75%
    21:00 +16°C° 0 mm 5 m/s 759 mmHg 74%
    22:00 +15°C° 0 mm 5 m/s 759 mmHg 73%
    23:00 +15°C° 0 mm 5 m/s 759 mmHg 76%

    23 Junho, Domingo

    Tempo Temperatura Precipitação Vento Pressão Humidade
    00:00 +14°C° 0 mm 5 m/s 759 mmHg 78%
    01:00 +14°C° 0 mm 5 m/s 759 mmHg 81%
    02:00 +13°C° 0 mm 4 m/s 759 mmHg 79%
    03:00 +13°C° 0 mm 4 m/s 759 mmHg 76%
    04:00 +13°C° 0 mm 4 m/s 759 mmHg 74%
    05:00 +13°C° 0 mm 4 m/s 759 mmHg 73%
    06:00 +13°C° 0 mm 4 m/s 759 mmHg 73%
    07:00 +14°C° 0 mm 4 m/s 759 mmHg 72%
    08:00 +15°C° 0 mm 4 m/s 759 mmHg 71%
    09:00 +17°C° 0 mm 4 m/s 760 mmHg 70%
    10:00 +19°C° 0 mm 4 m/s 760 mmHg 68%
    11:00 +20°C° 0 mm 4 m/s 760 mmHg 65%
    12:00 +21°C° 0 mm 4 m/s 760 mmHg 63%
    13:00 +22°C° 0 mm 4 m/s 760 mmHg 60%
    14:00 +22°C° 0 mm 4 m/s 759 mmHg 59%
    15:00 +22°C° 0 mm 5 m/s 759 mmHg 59%
    16:00 +23°C° 0 mm 5 m/s 759 mmHg 58%
    17:00 +21°C° 0 mm 4 m/s 759 mmHg 63%
    18:00 +20°C° 0 mm 4 m/s 760 mmHg 68%
    19:00 +19°C° 0 mm 4 m/s 760 mmHg 74%
    20:00 +18°C° 0 mm 4 m/s 760 mmHg 79%
    21:00 +15°C° 0 mm 4 m/s 760 mmHg 85%
    22:00 +14°C° 0 mm 4 m/s 761 mmHg 90%
    23:00 +13°C° 0 mm 3 m/s 761 mmHg 92%

    24 Junho, Segunda-feira

    Tempo Temperatura Precipitação Vento Pressão Humidade
    00:00 +13°C° 0 mm 3 m/s 761 mmHg 93%
    01:00 +12°C° 0 mm 3 m/s 761 mmHg 95%
    02:00 +12°C° 0 mm 3 m/s 761 mmHg 94%
    03:00 +12°C° 0 mm 3 m/s 761 mmHg 94%
    04:00 +11°C° 0 mm 3 m/s 761 mmHg 94%
    05:00 +13°C° 0 mm 3 m/s 762 mmHg 88%
    06:00 +16°C° 0 mm 3 m/s 762 mmHg 81%
    07:00 +17°C° 0 mm 3 m/s 762 mmHg 75%
    08:00 +19°C° 0 mm 3 m/s 762 mmHg 69%
    09:00 +20°C° 0 mm 3 m/s 762 mmHg 63%
    10:00 +22°C° 0 mm 3 m/s 762 mmHg 57%
    11:00 +24°C° 0 mm 3 m/s 762 mmHg 54%
    12:00 +24°C° 0 mm 3 m/s 762 mmHg 50%
    13:00 +25°C° 0 mm 3 m/s 761 mmHg 47%
    14:00 +25°C° 0 mm 3 m/s 761 mmHg 47%
    15:00 +25°C° 0 mm 3 m/s 761 mmHg 46%
    16:00 +25°C° 0 mm 3 m/s 761 mmHg 46%
    17:00 +24°C° 0 mm 3 m/s 761 mmHg 53%
    18:00 +23°C° 0 mm 2 m/s 761 mmHg 60%
    19:00 +21°C° 0 mm 2 m/s 761 mmHg 67%
    20:00 +19°C° 0 mm 2 m/s 762 mmHg 72%
    21:00 +18°C° 0 mm 2 m/s 762 mmHg 76%
    22:00 +16°C° 0 mm 2 m/s 762 mmHg 81%
    23:00 +16°C° 0 mm 2 m/s 762 mmHg 84%

    25 Junho, Terça-feira

    Tempo Temperatura Precipitação Vento Pressão Humidade
    00:00 +15°C° 0 mm 2 m/s 763 mmHg 86%
    01:00 +15°C° 0 mm 2 m/s 763 mmHg 89%
    02:00 +14°C° 0 mm 2 m/s 763 mmHg 89%
    03:00 +14°C° 0 mm 2 m/s 763 mmHg 90%
    04:00 +14°C° 0 mm 2 m/s 763 mmHg 90%
    05:00 +16°C° 0 mm 2 m/s 763 mmHg 84%
    06:00 +17°C° 0 mm 2 m/s 763 mmHg 78%
    07:00 +19°C° 0 mm 2 m/s 763 mmHg 71%
    08:00 +21°C° 0 mm 2 m/s 763 mmHg 67%
    09:00 +22°C° 0 mm 3 m/s 763 mmHg 62%
    10:00 +25°C° 0 mm 3 m/s 763 mmHg 57%
    11:00 +25°C° 0 mm 3 m/s 763 mmHg 54%
    12:00 +26°C° 0 mm 2 m/s 762 mmHg 50%
    13:00 +27°C° 0 mm 2 m/s 762 mmHg 47%
    14:00 +27°C° 0 mm 2 m/s 762 mmHg 48%
    15:00 +27°C° 0 mm 3 m/s 762 mmHg 48%
    16:00 +27°C° 0 mm 3 m/s 762 mmHg 49%
    17:00 +25°C° 0 mm 3 m/s 762 mmHg 55%
    18:00 +24°C° 0 mm 2 m/s 762 mmHg 62%
    19:00 +23°C° 0 mm 2 m/s 762 mmHg 68%
    20:00 +21°C° 0 mm 2 m/s 762 mmHg 71%
    21:00 +19°C° 0 mm 2 m/s 762 mmHg 74%
    22:00 +18°C° 0 mm 2 m/s 762 mmHg 77%
    23:00 +17°C° 0 mm 2 m/s 762 mmHg 78%
    Mostrar mais